When you browse on this site, cookies collect data to enhance your experience and personalize the content and advertising you see.
Visit our Privacy Policy to learn more. By continuing to use the site, you agree to this use of cookies and data.
  • In France
  • List of Countries
  • For 7 days
  • Water Temperature
  • Satellite Maps
  • Weather Map
  • Weather Widgets
  • user-avatar
    Login

    Hourly Weather Shumen

    Today, 27 May, Monday

    Time Temperature Precipitation Wind Pressure Humidity
    00:00 +15°C° 0 mm 1 mps 731 mmHg 90%
    01:00 +15°C° 0 mm 1 mps 731 mmHg 91%
    02:00 +14°C° 0 mm 1 mps 730 mmHg 91%
    03:00 +14°C° 0 mm 1 mps 731 mmHg 91%
    04:00 +14°C° 0 mm 1 mps 731 mmHg 91%
    05:00 +14°C° 0 mm 1 mps 731 mmHg 91%
    06:00 +16°C° 0 mm 2 mps 731 mmHg 85%
    07:00 +18°C° 0 mm 2 mps 731 mmHg 79%
    08:00 +21°C° 0 mm 3 mps 732 mmHg 73%
    09:00 +22°C° 0 mm 3 mps 732 mmHg 68%
    10:00 +23°C° 0 mm 4 mps 732 mmHg 63%
    11:00 +26°C° 0 mm 5 mps 732 mmHg 58%
    12:00 +26°C° 0 mm 5 mps 731 mmHg 57%
    13:00 +26°C° 0 mm 5 mps 731 mmHg 55%
    14:00 +27°C° 0 mm 5 mps 731 mmHg 53%
    15:00 +26°C° 0 mm 5 mps 731 mmHg 56%
    16:00 +25°C° 0 mm 5 mps 731 mmHg 58%
    17:00 +23°C° 0 mm 5 mps 730 mmHg 60%
    18:00 +21°C° 0 mm 4 mps 730 mmHg 68%
    19:00 +18°C° 0 mm 4 mps 730 mmHg 75%
    20:00 +16°C° 0 mm 3 mps 729 mmHg 83%
    21:00 +16°C° 0 mm 3 mps 729 mmHg 85%
    22:00 +14°C° 0 mm 3 mps 729 mmHg 88%
    23:00 +13°C° 0 mm 3 mps 729 mmHg 90%

    Tomorrow, 28 May, Tuesday

    Time Temperature Precipitation Wind Pressure Humidity
    00:00 +13°C° 0 mm 3 mps 729 mmHg 90%
    01:00 +13°C° 0 mm 3 mps 729 mmHg 91%
    02:00 +14°C° 0 mm 2 mps 729 mmHg 91%
    03:00 +13°C° 0 mm 2 mps 729 mmHg 91%
    04:00 +13°C° 0 mm 2 mps 728 mmHg 91%
    05:00 +13°C° 0 mm 2 mps 728 mmHg 91%
    06:00 +14°C° 0 mm 3 mps 728 mmHg 84%
    07:00 +17°C° 0 mm 3 mps 728 mmHg 77%
    08:00 +20°C° 0 mm 4 mps 728 mmHg 70%
    09:00 +22°C° 0 mm 4 mps 728 mmHg 66%
    10:00 +23°C° 0 mm 5 mps 728 mmHg 61%
    11:00 +26°C° 0 mm 6 mps 728 mmHg 57%
    12:00 +27°C° 0 mm 6 mps 728 mmHg 54%
    13:00 +28°C° 0 mm 6 mps 727 mmHg 52%
    14:00 +29°C° 0 mm 6 mps 727 mmHg 49%
    15:00 +29°C° 0 mm 6 mps 727 mmHg 52%
    16:00 +28°C° 0 mm 6 mps 726 mmHg 55%
    17:00 +28°C° 0 mm 5 mps 726 mmHg 58%
    18:00 +25°C° 0 mm 5 mps 726 mmHg 65%
    19:00 +22°C° 0 mm 4 mps 725 mmHg 72%
    20:00 +19°C° 0 mm 3 mps 725 mmHg 79%
    21:00 +18°C° 0 mm 3 mps 725 mmHg 79%
    22:00 +17°C° 0 mm 4 mps 725 mmHg 79%
    23:00 +15°C° 0 mm 4 mps 726 mmHg 79%

    Day after tomorrow, 29 May, Wednesday

    Time Temperature Precipitation Wind Pressure Humidity
    00:00 +16°C° 0 mm 3 mps 725 mmHg 77%
    01:00 +14°C° 0 mm 3 mps 725 mmHg 76%
    02:00 +14°C° 0 mm 3 mps 725 mmHg 75%
    03:00 +15°C° 0 mm 2 mps 725 mmHg 76%
    04:00 +15°C° 0 mm 2 mps 725 mmHg 76%
    05:00 +15°C° 0 mm 2 mps 726 mmHg 77%
    06:00 +17°C° 0 mm 2 mps 726 mmHg 74%
    07:00 +19°C° 0 mm 2 mps 726 mmHg 70%
    08:00 +21°C° 0 mm 3 mps 727 mmHg 67%
    09:00 +24°C° 0 mm 2 mps 727 mmHg 62%
    10:00 +26°C° 0 mm 2 mps 727 mmHg 57%
    11:00 +27°C° 0 mm 2 mps 728 mmHg 52%
    12:00 +28°C° 0 mm 2 mps 727 mmHg 50%
    13:00 +28°C° 0 mm 2 mps 727 mmHg 47%
    14:00 +29°C° 0 mm 2 mps 727 mmHg 45%
    15:00 +28°C° 0 mm 2 mps 727 mmHg 48%
    16:00 +28°C° 0 mm 2 mps 727 mmHg 50%
    17:00 +28°C° 0 mm 1 mps 727 mmHg 52%
    18:00 +26°C° 0 mm 1 mps 727 mmHg 57%
    19:00 +25°C° 0 mm 1 mps 727 mmHg 62%
    20:00 +23°C° 0 mm 1 mps 727 mmHg 67%
    21:00 +22°C° 0.1 mm 1 mps 727 mmHg 72%
    22:00 +20°C° 0.1 mm 1 mps 727 mmHg 77%
    23:00 +19°C° 0.1 mm 1 mps 728 mmHg 81%

    30 May, Thursday

    Time Temperature Precipitation Wind Pressure Humidity
    00:00 +19°C° 0 mm 1 mps 728 mmHg 82%
    01:00 +18°C° 0 mm 1 mps 728 mmHg 83%
    02:00 +16°C° 0 mm 0 mps 727 mmHg 85%
    03:00 +16°C° 0 mm 0 mps 728 mmHg 85%
    04:00 +16°C° 0 mm 0 mps 728 mmHg 86%
    05:00 +15°C° 0 mm 0 mps 728 mmHg 87%
    06:00 +19°C° 0 mm 1 mps 728 mmHg 81%
    07:00 +21°C° 0 mm 1 mps 728 mmHg 75%
    08:00 +23°C° 0 mm 1 mps 728 mmHg 70%
    09:00 +24°C° 0.2 mm 1 mps 729 mmHg 66%
    10:00 +26°C° 0.2 mm 2 mps 729 mmHg 62%
    11:00 +27°C° 0.2 mm 2 mps 729 mmHg 58%
    12:00 +27°C° 0.5 mm 1 mps 729 mmHg 57%
    13:00 +27°C° 0.5 mm 1 mps 728 mmHg 56%
    14:00 +28°C° 0.5 mm 1 mps 728 mmHg 55%
    15:00 +27°C° 0.7 mm 1 mps 728 mmHg 57%
    16:00 +27°C° 0.7 mm 1 mps 728 mmHg 58%
    17:00 +27°C° 0.7 mm 1 mps 728 mmHg 60%
    18:00 +25°C° 0.5 mm 1 mps 728 mmHg 68%
    19:00 +23°C° 0.5 mm 1 mps 727 mmHg 75%
    20:00 +21°C° 0.5 mm 1 mps 727 mmHg 82%
    21:00 +20°C° 0.5 mm 1 mps 727 mmHg 85%
    22:00 +17°C° 0.5 mm 0 mps 728 mmHg 87%
    23:00 +16°C° 0.5 mm 0 mps 728 mmHg 90%

    31 May, Friday

    Time Temperature Precipitation Wind Pressure Humidity
    00:00 +16°C° 0.4 mm 0 mps 728 mmHg 91%
    01:00 +16°C° 0.4 mm 1 mps 727 mmHg 92%
    02:00 +16°C° 0.4 mm 1 mps 727 mmHg 93%
    03:00 +16°C° 0 mm 1 mps 727 mmHg 94%
    04:00 +16°C° 0 mm 2 mps 727 mmHg 95%
    05:00 +15°C° 0 mm 2 mps 727 mmHg 96%
    06:00 +16°C° 0 mm 2 mps 727 mmHg 93%
    07:00 +17°C° 0 mm 3 mps 727 mmHg 90%
    08:00 +18°C° 0 mm 3 mps 728 mmHg 86%
    09:00 +19°C° 0 mm 3 mps 728 mmHg 82%
    10:00 +20°C° 0 mm 3 mps 728 mmHg 79%
    11:00 +21°C° 0 mm 2 mps 728 mmHg 75%
    12:00 +21°C° 0 mm 2 mps 728 mmHg 73%
    13:00 +21°C° 0 mm 2 mps 727 mmHg 71%
    14:00 +23°C° 0 mm 2 mps 727 mmHg 69%
    15:00 +23°C° 0.2 mm 1 mps 727 mmHg 68%
    16:00 +24°C° 0.2 mm 1 mps 727 mmHg 66%
    17:00 +24°C° 0.2 mm 1 mps 727 mmHg 65%
    18:00 +22°C° 1 mm 1 mps 727 mmHg 74%
    19:00 +19°C° 1 mm 2 mps 727 mmHg 83%
    20:00 +17°C° 1 mm 3 mps 727 mmHg 92%
    21:00 +17°C° 0.1 mm 3 mps 727 mmHg 93%
    22:00 +16°C° 0.1 mm 3 mps 727 mmHg 95%
    23:00 +14°C° 0.1 mm 3 mps 727 mmHg 96%

    1 June, Saturday

    Time Temperature Precipitation Wind Pressure Humidity
    00:00 +14°C° 0 mm 3 mps 726 mmHg 96%
    01:00 +13°C° 0 mm 3 mps 726 mmHg 96%
    02:00 +12°C° 0 mm 3 mps 726 mmHg 96%
    03:00 +13°C° 0 mm 2 mps 726 mmHg 95%
    04:00 +13°C° 0 mm 2 mps 726 mmHg 95%
    05:00 +12°C° 0 mm 2 mps 726 mmHg 95%
    06:00 +13°C° 0 mm 3 mps 726 mmHg 90%
    07:00 +16°C° 0 mm 3 mps 726 mmHg 86%
    08:00 +17°C° 0 mm 3 mps 727 mmHg 81%
    09:00 +19°C° 0 mm 4 mps 727 mmHg 75%
    10:00 +20°C° 0 mm 4 mps 727 mmHg 69%
    11:00 +22°C° 0 mm 4 mps 727 mmHg 63%
    12:00 +24°C° 0.2 mm 3 mps 726 mmHg 61%
    13:00 +24°C° 0.2 mm 3 mps 726 mmHg 60%
    14:00 +25°C° 0.2 mm 2 mps 726 mmHg 58%
    15:00 +24°C° 0.4 mm 2 mps 725 mmHg 59%
    16:00 +24°C° 0.4 mm 2 mps 725 mmHg 61%
    17:00 +24°C° 0.4 mm 1 mps 725 mmHg 62%
    18:00 +21°C° 0.5 mm 2 mps 725 mmHg 69%
    19:00 +19°C° 0.5 mm 2 mps 725 mmHg 77%
    20:00 +18°C° 0.5 mm 2 mps 725 mmHg 84%
    21:00 +17°C° 0.2 mm 2 mps 725 mmHg 87%
    22:00 +16°C° 0.2 mm 3 mps 725 mmHg 90%
    23:00 +14°C° 0.2 mm 3 mps 726 mmHg 92%
    Show more